Home > Weather > Coventry > Past weeks

Flag for United Kingdom Past Weather in Coventry, England, United Kingdom — Yesterday and Last 2 Weeks

Now
52 °F

Clear.


Feels Like: 48 °F
Forecast: 51 / 66 °F
Wind: 12 mph from Southwest

Location: Coventry Airport

Current Time: Jul 2, 2016 at 5:06:37 AM

Latest Report: Jul 2, 2016 at 1:50 AM


Visibility: 10 mi

Pressure: 29.77 "Hg

Humidity: 82%

Dew Point: 46 °F

Location of CoventryLocation

Past Weather in Coventry — Graph

°F

Coventry Temperature Yesterday

Maximum temperature yesterday: 66 °F (at 2:20 PM)
Minimum temperature yesterday: 54 °F (at 10:20 PM)
Average temperature yesterday: 61 °F

High & Low Weather Summary for the Past Weeks

 TemperatureHumidityPressure
High72 °F (Jun 23, 2:20 PM)94% (Jun 20, 7:20 AM)30.21 "Hg (Jun 20, 7:20 AM)
Low50 °F (Jul 2, 1:20 AM)43% (Jun 27, 4:20 PM)29.62 "Hg (Jun 17, 1:20 AM)
Average62 °F73%29.93 "Hg
* Reported Jun 17 1:20 AM — Jul 2 1:50 AM, Coventry, Weather by CustomWeather, © 2016

Note: Actual official high and low records may vary slightly from our data, if they occured in-between our weather recording intervals... More about our weather records

Advertising

Coventry Weather History for the Previous 24 Hours

Scroll right to see more
 ConditionsComfort  
Time TempWeatherWind HumidityBarometerVisibility
1:50 AM
Sat, Jul 2
52 °FClear.12 mph82%29.77 "Hg10 mi
1:20 AM50 °FClear.12 mph88%29.77 "Hg10 mi
12:50 AM52 °FClear.13 mph82%29.77 "Hg10 mi
12:20 AM52 °FClear.10 mph82%29.77 "Hg10 mi
11:50 PM
Fri, Jul 1
54 °FClear.13 mph77%29.77 "Hg10 mi
10:50 PM54 °FPassing clouds.12 mph77%29.77 "HgN/A
10:20 PM54 °FPassing clouds.12 mph77%29.77 "HgN/A
9:50 PM55 °FScattered showers. Scattered clouds.13 mph72%29.74 "HgN/A
9:20 PM55 °FScattered showers. Scattered clouds.16 mph72%29.74 "HgN/A
8:50 PM57 °FScattered showers. Scattered clouds.10 mph67%29.71 "HgN/A
7:50 PM57 °FPassing clouds.9 mph77%29.71 "HgN/A
7:20 PM59 °FRain showers. Scattered clouds.17 mph68%29.71 "Hg4 mi
6:50 PM61 °FScattered clouds.15 mph63%29.71 "HgN/A
6:20 PM63 °FScattered clouds.20 mph56%29.71 "HgN/A
5:50 PM63 °FScattered clouds.14 mph56%29.71 "HgN/A
5:20 PM64 °FScattered clouds.12 mph60%29.68 "HgN/A
4:50 PM63 °FScattered clouds.15 mph64%29.71 "HgN/A
4:20 PM57 °FScattered clouds.12 mph77%29.71 "HgN/A
3:50 PM64 °FLight rain. Scattered clouds.21 mph56%29.71 "HgN/A
3:20 PM66 °FScattered clouds.16 mph56%29.68 "HgN/A
2:50 PM66 °FScattered clouds.18 mph56%29.68 "HgN/A
2:20 PM66 °FScattered clouds.18 mph56%29.71 "HgN/A
1:50 PM64 °FScattered clouds.20 mph56%29.71 "HgN/A
1:20 PM64 °FScattered clouds.17 mph56%29.71 "HgN/A
12:50 PM63 °FScattered clouds.18 mph64%29.71 "HgN/A
12:20 PM63 °FScattered clouds.17 mph64%29.71 "HgN/A
11:50 AM63 °FScattered clouds.14 mph68%29.74 "HgN/A
11:20 AM64 °FScattered clouds.18 mph60%29.74 "HgN/A
10:50 AM63 °FPassing clouds.12 mph64%29.74 "HgN/A
10:20 AM63 °FPassing clouds.16 mph64%29.74 "HgN/A
9:50 AM63 °FPassing clouds.15 mph68%29.74 "HgN/A
9:20 AM61 °FScattered clouds.14 mph72%29.74 "HgN/A
8:50 AM61 °FPassing clouds.13 mph77%29.74 "HgN/A
8:20 AM59 °FPassing clouds.13 mph82%29.74 "HgN/A
7:50 AM59 °FPassing clouds.12 mph82%29.74 "HgN/A
7:20 AM59 °FPassing clouds.13 mph82%29.74 "HgN/A
6:50 AM59 °FPassing clouds.16 mph82%29.71 "HgN/A
Weather by CustomWeather, © 2016

See weather overviewHow to use our weather pages